Find Starlink 1880

NORAD ID: 47165 Int'l Des: 2020-088 Owner: SPXS Country: US Constellation: starlink decayed
LEOCIRCULAR

Historical Track — Feb 5, 2025

3D地球を読み込み中...

About Starlink 1880

Starlink 1880 (NORAD 47165) is a starlink constellation satellite (v1.0) launched Nov 25, 2020 by SPXS of US. It operates in LEO, CIRCULAR orbit with a mass of 260.00 kg.

Starlink 1880について

説明を読み込み中...

高度履歴

Loading altitude history...

軌道要素

1 47165U 20088AV 25036.66279406 .15383080 12511-4 61861-3 0 9994
2 47165 53.0243 247.3985 0007640 295.8466 175.4931 16.43313928232756
Epoch: Feb 5, 2025 • Age: 11746 hours

現在のステータス

Position data unavailable
打ち上げ日 Nov 25, 2020
運用期間 5.5 years
落下予定日 Feb 5, 2025
タイプ internet

技術仕様

分類 Payload
質量 260.00 kg
乾燥質量 248.00 kg
総質量 260.00 kg
長さ 0.20 m
直径 2.80 m
スパン 9.00 m
形状 Box + pan
製造者 SPXS
バスタイプ Starlink
フェーズステータス Unknown Transfer Status
所有者/国 SPXS/US

Most Searched